UAL153 VVTS-VHHH

Flight info

Callsign UAL153
Flight time 1h 59m
Altitude 39000
Route PATMA5M PATMA W12 PCA G221 BUNTA A1 IKELA/N0476F390 P901 IDOSI V561 CANTO
Aircraft B78X/H-SDE1E2E3FGHIJ2J3J4J5M1RWXY/LB1D1

Departure

Time 2026-05-05 03:37
Airport Tan Son Nhat International Airport (VVTS)

Arrival

Time 2026-05-05 05:36
Airport Hong Kong International Airport (VHHH)
Time Latitude Longitude Altitude Speed Heading
2026-05-05 03:16 10.81689 106.66177 47 ft 0 kts 162°
2026-05-05 03:25 10.81693 106.66176 45 ft 2 kts 162°
2026-05-05 03:25 10.81705 106.66172 47 ft 2 kts 162°
2026-05-05 03:26 10.81716 106.66168 47 ft 2 kts 162°
2026-05-05 03:26 10.81728 106.66164 42 ft 2 kts 162°
2026-05-05 03:26 10.81740 106.66161 42 ft 2 kts 157°
2026-05-05 03:26 10.81752 106.66156 40 ft 2 kts 136°
2026-05-05 03:27 10.81761 106.66147 42 ft 2 kts 119°
2026-05-05 03:27 10.81767 106.66136 42 ft 2 kts 99°
2026-05-05 03:27 10.81769 106.66124 44 ft 2 kts 83°
2026-05-05 03:27 10.81768 106.66115 44 ft 0 kts 76°
2026-05-05 03:30 10.81768 106.66116 44 ft 1 kts 76°
2026-05-05 03:31 10.81771 106.66128 42 ft 3 kts 76°
2026-05-05 03:31 10.81778 106.66154 40 ft 5 kts 73°
2026-05-05 03:31 10.81793 106.66197 44 ft 9 kts 69°
2026-05-05 03:31 10.81825 106.66276 46 ft 15 kts 67°
2026-05-05 03:32 10.81869 106.66388 44 ft 19 kts 72°
2026-05-05 03:32 10.81914 106.66515 48 ft 19 kts 69°
2026-05-05 03:32 10.81964 106.66643 47 ft 20 kts 68°
2026-05-05 03:32 10.82009 106.66760 49 ft 17 kts 70°
2026-05-05 03:33 10.82058 106.66873 49 ft 17 kts 53°
2026-05-05 03:33 10.82132 106.66944 50 ft 14 kts 40°
2026-05-05 03:33 10.82191 106.66995 50 ft 8 kts 37°
2026-05-05 03:33 10.82245 106.67005 47 ft 8 kts 351°
2026-05-05 03:34 10.82259 106.67002 50 ft 0 kts 346°
2026-05-05 03:35 10.82263 106.67001 50 ft 3 kts 346°
2026-05-05 03:35 10.82308 106.66975 50 ft 11 kts 318°
2026-05-05 03:36 10.82336 106.66901 50 ft 12 kts 272°
2026-05-05 03:36 10.82279 106.66712 44 ft 63 kts 250°
2026-05-05 03:36 10.81996 106.65959 48 ft 164 kts 249°
2026-05-05 03:36 10.81508 106.64718 529 ft 210 kts 249°
2026-05-05 03:37 10.80911 106.63116 1059 ft 255 kts 250°
2026-05-05 03:37 10.80282 106.61415 2515 ft 266 kts 250°
2026-05-05 03:37 10.79690 106.59611 3925 ft 275 kts 260°
2026-05-05 03:37 10.79713 106.57638 5331 ft 283 kts 281°
2026-05-05 03:38 10.80420 106.55791 6700 ft 288 kts 304°
2026-05-05 03:38 10.81771 106.54290 8041 ft 290 kts 326°
2026-05-05 03:38 10.83593 106.53393 9375 ft 292 kts 348°
2026-05-05 03:38 10.85619 106.53252 10654 ft 293 kts 10°
2026-05-05 03:39 10.87537 106.53883 11840 ft 296 kts 31°
2026-05-05 03:39 10.89174 106.55173 13070 ft 301 kts 43°
2026-05-05 03:39 10.90766 106.56613 14227 ft 308 kts 43°
2026-05-05 03:39 10.92352 106.58075 15326 ft 315 kts 43°
2026-05-05 03:40 10.94004 106.59589 16405 ft 324 kts 43°
2026-05-05 03:40 10.95732 106.61163 17167 ft 342 kts 43°
2026-05-05 03:40 10.97564 106.62830 17807 ft 363 kts 42°
2026-05-05 03:40 10.99458 106.64558 18601 ft 374 kts 43°
2026-05-05 03:41 11.01418 106.66350 19590 ft 377 kts 42°
2026-05-05 03:41 11.03377 106.68138 20658 ft 378 kts 42°
2026-05-05 03:41 11.05315 106.69907 21742 ft 378 kts 42°
2026-05-05 03:41 11.07278 106.71701 22853 ft 377 kts 42°
2026-05-05 03:42 11.09238 106.73491 23854 ft 378 kts 43°
2026-05-05 03:42 11.11175 106.75262 24761 ft 376 kts 43°
2026-05-05 03:42 11.13128 106.77045 25709 ft 374 kts 43°
2026-05-05 03:42 11.15009 106.78872 26640 ft 371 kts 52°
2026-05-05 03:43 11.16584 106.80929 27350 ft 376 kts 52°
2026-05-05 03:43 11.18225 106.83072 27888 ft 386 kts 53°
2026-05-05 03:43 11.19889 106.85242 28604 ft 390 kts 53°
2026-05-05 03:43 11.21571 106.87438 29409 ft 391 kts 53°
2026-05-05 03:44 11.23223 106.89596 30208 ft 391 kts 53°
2026-05-05 03:44 11.24896 106.91785 30895 ft 392 kts 53°
2026-05-05 03:44 11.26596 106.94006 31313 ft 401 kts 53°
2026-05-05 03:44 11.28330 106.96273 31737 ft 408 kts 53°
2026-05-05 03:45 11.30091 106.98575 32259 ft 412 kts 52°
2026-05-05 03:45 11.31840 107.00862 32827 ft 415 kts 52°
2026-05-05 03:45 11.33624 107.03197 33439 ft 416 kts 52°
2026-05-05 03:45 11.35439 107.05508 34048 ft 417 kts 46°
2026-05-05 03:46 11.37621 107.07402 34618 ft 416 kts 37°
2026-05-05 03:46 11.39942 107.09179 35145 ft 416 kts 37°
2026-05-05 03:46 11.42278 107.10945 35689 ft 416 kts 36°
2026-05-05 03:46 11.44575 107.12693 36231 ft 416 kts 37°
2026-05-05 03:47 11.46889 107.14468 36781 ft 415 kts 36°
2026-05-05 03:47 11.49205 107.16241 37324 ft 414 kts 36°
2026-05-05 03:47 11.51518 107.18006 37854 ft 414 kts 36°
2026-05-05 03:47 11.53803 107.19750 38265 ft 417 kts 35°
2026-05-05 03:48 11.56146 107.21540 38426 ft 425 kts 36°
2026-05-05 03:48 11.57735 107.22756 38493 ft 431 kts 35°
2026-05-05 03:48 11.62653 107.26517 38641 ft 450 kts 36°
2026-05-05 03:49 11.65183 107.28452 38771 ft 457 kts 36°
2026-05-05 03:49 11.67723 107.30396 38927 ft 463 kts 36°
2026-05-05 03:49 11.73002 107.34436 38943 ft 482 kts 36°
2026-05-05 03:50 11.78414 107.38583 38935 ft 486 kts 36°
2026-05-05 03:50 11.83795 107.42706 38948 ft 482 kts 36°
2026-05-05 03:51 11.89163 107.46821 38951 ft 480 kts 36°
2026-05-05 03:51 11.94495 107.50910 38961 ft 481 kts 36°
2026-05-05 03:52 11.99855 107.55024 38965 ft 481 kts 36°
2026-05-05 03:52 12.05184 107.59115 38957 ft 482 kts 36°
2026-05-05 03:53 12.10569 107.63252 38971 ft 482 kts 36°
2026-05-05 03:53 12.15915 107.67361 38970 ft 481 kts 36°
2026-05-05 03:54 12.21251 107.71464 38971 ft 487 kts 36°
2026-05-05 03:54 12.26687 107.75645 38963 ft 488 kts 36°
2026-05-05 03:55 12.32122 107.79830 38959 ft 490 kts 36°
2026-05-05 03:55 12.37285 107.84430 38959 ft 492 kts 43°
2026-05-05 03:56 12.42263 107.89174 38961 ft 492 kts 42°
2026-05-05 03:56 12.47299 107.93928 38954 ft 492 kts 42°
2026-05-05 03:57 12.52312 107.98692 38950 ft 493 kts 41°
2026-05-05 03:57 12.57424 108.03533 38960 ft 502 kts 41°
2026-05-05 03:58 12.62506 108.08361 38960 ft 502 kts 41°
2026-05-05 03:58 12.67740 108.13073 38981 ft 499 kts 33°
2026-05-05 03:59 12.73434 108.17107 38968 ft 498 kts 33°
2026-05-05 03:59 12.79152 108.21160 38968 ft 499 kts 33°
2026-05-05 04:00 12.84833 108.25192 38974 ft 499 kts 33°
2026-05-05 04:00 12.90567 108.29262 38970 ft 501 kts 33°
2026-05-05 04:01 12.96313 108.33345 38965 ft 501 kts 33°
2026-05-05 04:01 13.02030 108.37407 38966 ft 501 kts 33°
2026-05-05 04:02 13.07769 108.41489 38967 ft 501 kts 33°
2026-05-05 04:02 13.13447 108.45530 38960 ft 495 kts 33°
2026-05-05 04:03 13.19145 108.49585 38965 ft 495 kts 33°
2026-05-05 04:03 13.24750 108.53580 38959 ft 495 kts 33°
2026-05-05 04:04 13.30411 108.57614 38969 ft 494 kts 33°
2026-05-05 04:04 13.36072 108.61648 38969 ft 495 kts 33°
2026-05-05 04:05 13.41706 108.65659 38966 ft 494 kts 33°
2026-05-05 04:05 13.47386 108.69709 38968 ft 495 kts 33°
2026-05-05 04:06 13.53028 108.73733 38977 ft 495 kts 33°
2026-05-05 04:06 13.58658 108.77752 38979 ft 495 kts 32°
2026-05-05 04:07 13.64332 108.81803 38979 ft 493 kts 33°
2026-05-05 04:07 13.69949 108.85816 38982 ft 493 kts 32°
2026-05-05 04:08 13.75558 108.89828 38979 ft 494 kts 32°
2026-05-05 04:08 13.81198 108.93862 38979 ft 493 kts 32°
2026-05-05 04:09 13.86822 108.97888 38976 ft 489 kts 33°
2026-05-05 04:09 13.92416 109.01893 38970 ft 491 kts 33°
2026-05-05 04:10 13.98359 109.05353 38993 ft 493 kts 15°
2026-05-05 04:10 14.01661 109.06109 38994 ft 487 kts
2026-05-05 04:10 14.05040 109.06296 38975 ft 485 kts 358°
2026-05-05 04:11 14.11791 109.06232 38975 ft 485 kts 359°
2026-05-05 04:11 14.18542 109.06918 38976 ft 490 kts
2026-05-05 04:12 14.25297 109.07932 38967 ft 490 kts
2026-05-05 04:12 14.32045 109.08632 38973 ft 490 kts
2026-05-05 04:13 14.38810 109.09526 38975 ft 489 kts
2026-05-05 04:13 14.45551 109.10305 38970 ft 489 kts
2026-05-05 04:14 14.52357 109.11157 38971 ft 490 kts
2026-05-05 04:14 14.59095 109.11966 38973 ft 490 kts
2026-05-05 04:15 14.65888 109.12800 38967 ft 490 kts
2026-05-05 04:15 14.72625 109.13619 38965 ft 489 kts
2026-05-05 04:16 14.79399 109.14447 38962 ft 489 kts
2026-05-05 04:16 14.86131 109.15269 38968 ft 489 kts
2026-05-05 04:17 14.92877 109.16093 38971 ft 490 kts
2026-05-05 04:17 14.99676 109.16925 38969 ft 490 kts
2026-05-05 04:18 15.06413 109.17750 38968 ft 489 kts
2026-05-05 04:18 15.13187 109.18580 38968 ft 488 kts
2026-05-05 04:19 15.19866 109.19400 38958 ft 481 kts
2026-05-05 04:19 15.26574 109.20219 38963 ft 484 kts
2026-05-05 04:20 15.33236 109.21039 38964 ft 484 kts
2026-05-05 04:20 15.39935 109.21860 38961 ft 484 kts
2026-05-05 04:21 15.46649 109.22686 38964 ft 484 kts
2026-05-05 04:21 15.53278 109.23502 38957 ft 478 kts
2026-05-05 04:22 15.59945 109.24320 38956 ft 481 kts
2026-05-05 04:22 15.66552 109.25131 38954 ft 481 kts
2026-05-05 04:23 15.73187 109.25940 38956 ft 480 kts
2026-05-05 04:23 15.79849 109.26757 38955 ft 480 kts
2026-05-05 04:24 15.86488 109.27570 38964 ft 483 kts
2026-05-05 04:25 15.96509 109.28799 38963 ft 482 kts
2026-05-05 04:25 16.03185 109.29618 38959 ft 482 kts
2026-05-05 04:26 16.09817 109.30433 38963 ft 482 kts
2026-05-05 04:26 16.16505 109.31255 38959 ft 486 kts
2026-05-05 04:27 16.23218 109.32080 38960 ft 485 kts
2026-05-05 04:27 16.29942 109.32908 38962 ft 486 kts
2026-05-05 04:28 16.36627 109.33731 38961 ft 486 kts
2026-05-05 04:28 16.43359 109.34561 38961 ft 486 kts
2026-05-05 04:29 16.50088 109.35391 38968 ft 485 kts
2026-05-05 04:29 16.56754 109.36213 38965 ft 484 kts
2026-05-05 04:30 16.63473 109.37043 38966 ft 484 kts
2026-05-05 04:30 16.70144 109.37868 38968 ft 484 kts
2026-05-05 04:31 16.76855 109.38697 38963 ft 484 kts
2026-05-05 04:31 16.83470 109.39838 38983 ft 486 kts 15°
2026-05-05 04:31 16.86579 109.41310 38988 ft 497 kts 27°
2026-05-05 04:32 16.89377 109.43474 38988 ft 504 kts 40°
2026-05-05 04:32 16.91697 109.46203 38987 ft 511 kts 52°
2026-05-05 04:32 16.93482 109.49436 38987 ft 517 kts 63°
2026-05-05 04:33 16.96036 109.56498 38966 ft 520 kts 67°
2026-05-05 04:33 16.98724 109.63451 38966 ft 516 kts 60°
2026-05-05 04:34 17.02586 109.69711 38963 ft 510 kts 49°
2026-05-05 04:34 17.06841 109.75641 38963 ft 512 kts 53°
2026-05-05 04:35 17.10018 109.80900 38965 ft 513 kts 53°
2026-05-05 04:35 17.14716 109.88037 38966 ft 511 kts 52°
2026-05-05 04:36 17.18635 109.94229 38963 ft 513 kts 52°
2026-05-05 04:36 17.22631 110.00404 38964 ft 513 kts 52°
2026-05-05 04:37 17.25949 110.05584 38965 ft 513 kts 53°
2026-05-05 04:37 17.29911 110.11769 38962 ft 512 kts 52°
2026-05-05 04:38 17.33877 110.17950 38961 ft 513 kts 52°
2026-05-05 04:38 17.37857 110.24172 38973 ft 514 kts 53°
2026-05-05 04:39 17.41815 110.30359 38962 ft 511 kts 52°
2026-05-05 04:39 17.45804 110.36494 38961 ft 511 kts 52°
2026-05-05 04:40 17.49824 110.42682 38959 ft 512 kts 52°
2026-05-05 04:40 17.53812 110.48839 38957 ft 512 kts 52°
2026-05-05 04:41 17.57801 110.54989 38960 ft 513 kts 52°
2026-05-05 04:41 17.61811 110.61191 38960 ft 513 kts 52°
2026-05-05 04:42 17.65810 110.67370 38966 ft 513 kts 52°
2026-05-05 04:42 17.69826 110.73589 38963 ft 513 kts 52°
2026-05-05 04:43 17.73816 110.79769 38963 ft 513 kts 52°
2026-05-05 04:43 17.77832 110.85997 38961 ft 514 kts 52°
2026-05-05 04:44 17.81816 110.92180 38963 ft 514 kts 52°
2026-05-05 04:44 17.85818 110.98399 38959 ft 513 kts 52°
2026-05-05 04:45 17.89799 111.04589 38961 ft 512 kts 52°
2026-05-05 04:45 17.93804 111.10821 38948 ft 512 kts 52°
2026-05-05 04:46 17.97772 111.17004 38951 ft 515 kts 53°
2026-05-05 04:46 18.01760 111.23224 38952 ft 514 kts 53°
2026-05-05 04:47 18.05769 111.29481 38950 ft 514 kts 53°
2026-05-05 04:47 18.09747 111.35696 38951 ft 514 kts 53°
2026-05-05 04:48 18.13742 111.41944 38954 ft 514 kts 53°
2026-05-05 04:48 18.17715 111.48163 38956 ft 514 kts 53°
2026-05-05 04:49 18.21687 111.54389 38952 ft 509 kts 53°
2026-05-05 04:49 18.25656 111.60611 38951 ft 511 kts 53°
2026-05-05 04:50 18.29592 111.66792 38952 ft 511 kts 53°
2026-05-05 04:50 18.33554 111.73017 38952 ft 511 kts 53°
2026-05-05 04:51 18.37488 111.79205 38956 ft 511 kts 53°
2026-05-05 04:51 18.41455 111.85450 38953 ft 514 kts 53°
2026-05-05 04:52 18.45430 111.91717 38953 ft 513 kts 53°
2026-05-05 04:52 18.49364 111.97922 38954 ft 508 kts 53°
2026-05-05 04:53 18.53311 112.04154 38955 ft 511 kts 53°
2026-05-05 04:53 18.57234 112.10355 38956 ft 510 kts 53°
2026-05-05 04:54 18.61188 112.16610 38955 ft 513 kts 53°
2026-05-05 04:54 18.65124 112.22845 38952 ft 511 kts 53°
2026-05-05 04:54 18.67357 112.25738 38975 ft 505 kts 40°
2026-05-05 04:55 18.70059 112.28102 38965 ft 502 kts 31°
2026-05-05 04:55 18.75945 112.31966 38956 ft 498 kts 27°
2026-05-05 04:56 18.81708 112.36086 38955 ft 501 kts 34°
2026-05-05 04:56 18.87263 112.40460 38957 ft 500 kts 31°
2026-05-05 04:57 18.92993 112.44661 38963 ft 501 kts 32°
2026-05-05 04:57 18.98665 112.49011 38961 ft 503 kts 30°
2026-05-05 04:57 19.01721 112.50741 38976 ft 495 kts 17°
2026-05-05 04:58 19.04967 112.51731 38979 ft 488 kts
2026-05-05 04:58 19.11696 112.52426 38962 ft 482 kts 360°
2026-05-05 04:59 19.18372 112.53170 38959 ft 487 kts
2026-05-05 04:59 19.24993 112.54632 38957 ft 487 kts
2026-05-05 05:00 19.31692 112.55724 38965 ft 486 kts
2026-05-05 05:00 19.38322 112.56995 38965 ft 487 kts
2026-05-05 05:01 19.45004 112.58187 38964 ft 488 kts
2026-05-05 05:01 19.51713 112.59422 38962 ft 489 kts
2026-05-05 05:02 19.58429 112.60647 38965 ft 488 kts
2026-05-05 05:02 19.65095 112.61867 38977 ft 487 kts
2026-05-05 05:03 19.71790 112.63093 38963 ft 486 kts
2026-05-05 05:03 19.78442 112.64311 38967 ft 488 kts
2026-05-05 05:04 19.85120 112.65536 38969 ft 489 kts
2026-05-05 05:04 19.91825 112.66767 38970 ft 488 kts
2026-05-05 05:05 19.98530 112.67999 38966 ft 487 kts
2026-05-05 05:05 20.05187 112.69223 38965 ft 486 kts
2026-05-05 05:06 20.11848 112.70449 38970 ft 488 kts
2026-05-05 05:06 20.18554 112.71684 38970 ft 489 kts
2026-05-05 05:07 20.25270 112.72920 38979 ft 487 kts
2026-05-05 05:07 20.31907 112.74140 38971 ft 486 kts
2026-05-05 05:08 20.38573 112.75368 38970 ft 487 kts
2026-05-05 05:08 20.45287 112.76606 38971 ft 488 kts
2026-05-05 05:09 20.51954 112.77836 38973 ft 488 kts
2026-05-05 05:09 20.58650 112.79073 38976 ft 489 kts
2026-05-05 05:10 20.65363 112.80314 38960 ft 487 kts
2026-05-05 05:10 20.72007 112.81543 38963 ft 487 kts
2026-05-05 05:11 20.78626 112.82773 38605 ft 474 kts
2026-05-05 05:11 20.81880 112.83373 37941 ft 473 kts
2026-05-05 05:11 20.85070 112.83962 37432 ft 468 kts
2026-05-05 05:11 20.88301 112.84562 36771 ft 469 kts
2026-05-05 05:12 20.91516 112.85159 36195 ft 468 kts
2026-05-05 05:12 20.94693 112.85749 35623 ft 466 kts
2026-05-05 05:12 20.97892 112.86343 35058 ft 465 kts
2026-05-05 05:12 21.01090 112.86937 34487 ft 464 kts
2026-05-05 05:13 21.04269 112.87528 33912 ft 462 kts
2026-05-05 05:13 21.07406 112.88111 33328 ft 460 kts
2026-05-05 05:13 21.10564 112.88699 32764 ft 456 kts
2026-05-05 05:13 21.13694 112.89282 32223 ft 453 kts
2026-05-05 05:14 21.16756 112.89852 31693 ft 451 kts
2026-05-05 05:14 21.19849 112.90427 31140 ft 451 kts
2026-05-05 05:14 21.22945 112.91003 30609 ft 448 kts
2026-05-05 05:14 21.26019 112.91578 30078 ft 446 kts
2026-05-05 05:15 21.29023 112.92141 29479 ft 443 kts
2026-05-05 05:15 21.31976 112.93135 28984 ft 447 kts 21°
2026-05-05 05:15 21.34622 112.94905 28553 ft 450 kts 36°
2026-05-05 05:15 21.36777 112.97348 28128 ft 452 kts 51°
2026-05-05 05:16 21.38307 113.00320 27600 ft 457 kts 67°
2026-05-05 05:16 21.39089 113.03589 27079 ft 456 kts 82°
2026-05-05 05:16 21.39280 113.06981 26538 ft 454 kts 89°
2026-05-05 05:16 21.39313 113.10360 26032 ft 450 kts 89°
2026-05-05 05:17 21.39431 113.13661 25552 ft 446 kts 85°
2026-05-05 05:17 21.39778 113.16963 25055 ft 442 kts 79°
2026-05-05 05:17 21.40560 113.20147 24558 ft 437 kts 69°
2026-05-05 05:17 21.41688 113.23160 24058 ft 434 kts 64°
2026-05-05 05:18 21.42889 113.26134 23545 ft 432 kts 65°
2026-05-05 05:18 21.43917 113.29164 23009 ft 430 kts 70°
2026-05-05 05:18 21.44792 113.32173 22518 ft 425 kts 71°
2026-05-05 05:18 21.45727 113.35160 22032 ft 419 kts 69°
2026-05-05 05:19 21.46725 113.38093 21557 ft 414 kts 68°
2026-05-05 05:19 21.47693 113.41002 21086 ft 410 kts 70°
2026-05-05 05:19 21.48612 113.43887 20619 ft 405 kts 70°
2026-05-05 05:19 21.49511 113.46702 20181 ft 401 kts 70°
2026-05-05 05:20 21.50431 113.49523 19712 ft 396 kts 70°
2026-05-05 05:20 21.51338 113.52302 19273 ft 392 kts 70°
2026-05-05 05:20 21.52218 113.55025 18836 ft 388 kts 70°
2026-05-05 05:20 21.53170 113.57718 18396 ft 384 kts 60°
2026-05-05 05:21 21.54774 113.59993 17946 ft 377 kts 44°
2026-05-05 05:21 21.56627 113.61908 17508 ft 370 kts 39°
2026-05-05 05:21 21.58545 113.63731 17078 ft 364 kts 40°
2026-05-05 05:21 21.60361 113.65609 16683 ft 358 kts 43°
2026-05-05 05:22 21.62066 113.67498 16284 ft 353 kts 44°
2026-05-05 05:22 21.63782 113.69356 15885 ft 347 kts 42°
2026-05-05 05:22 21.65530 113.71137 15493 ft 344 kts 38°
2026-05-05 05:22 21.67340 113.72858 15035 ft 347 kts 40°
2026-05-05 05:23 21.68508 113.74027 14751 ft 345 kts 40°
2026-05-05 05:23 21.70832 113.76339 14188 ft 341 kts 40°
2026-05-05 05:23 21.72024 113.77495 13910 ft 339 kts 40°
2026-05-05 05:23 21.73754 113.79172 13465 ft 337 kts 40°
2026-05-05 05:24 21.75485 113.80864 13046 ft 334 kts 40°
2026-05-05 05:24 21.77753 113.83088 12502 ft 331 kts 40°
2026-05-05 05:24 21.78902 113.84212 12228 ft 329 kts 40°
2026-05-05 05:24 21.80576 113.85848 11833 ft 327 kts 40°
2026-05-05 05:25 21.82262 113.87496 11426 ft 325 kts 40°
2026-05-05 05:25 21.83963 113.89101 11006 ft 322 kts 33°
2026-05-05 05:25 21.86018 113.89908 10633 ft 312 kts 359°
2026-05-05 05:25 21.88061 113.89499 10291 ft 295 kts 331°
2026-05-05 05:26 21.89768 113.88395 9942 ft 282 kts 321°
2026-05-05 05:26 21.91392 113.87221 9584 ft 280 kts 324°
2026-05-05 05:26 21.93119 113.86225 9247 ft 288 kts 332°
2026-05-05 05:26 21.94972 113.85380 8878 ft 286 kts 334°
2026-05-05 05:27 21.96788 113.84539 8524 ft 279 kts 332°
2026-05-05 05:27 21.98521 113.83661 8185 ft 277 kts 331°
2026-05-05 05:27 22.02000 113.81910 7513 ft 274 kts 332°
2026-05-05 05:28 22.03735 113.81049 7168 ft 273 kts 332°
2026-05-05 05:28 22.05460 113.80192 6831 ft 272 kts 332°
2026-05-05 05:28 22.07146 113.79352 6533 ft 265 kts 332°
2026-05-05 05:28 22.08778 113.78540 6191 ft 251 kts 332°
2026-05-05 05:29 22.10329 113.77767 5880 ft 239 kts 332°
2026-05-05 05:29 22.11804 113.77031 5579 ft 228 kts 332°
2026-05-05 05:29 22.13218 113.76325 5298 ft 220 kts 332°
2026-05-05 05:29 22.14584 113.75643 5029 ft 213 kts 332°
2026-05-05 05:30 22.15893 113.74991 4779 ft 201 kts 332°
2026-05-05 05:30 22.17113 113.74381 4523 ft 191 kts 332°
2026-05-05 05:30 22.18295 113.73790 4278 ft 183 kts 333°
2026-05-05 05:30 22.19434 113.73222 4060 ft 179 kts 333°
2026-05-05 05:31 22.20570 113.72663 3840 ft 178 kts 335°
2026-05-05 05:31 22.21764 113.72597 3545 ft 176 kts 20°
2026-05-05 05:31 22.22813 113.73271 3411 ft 176 kts 36°
2026-05-05 05:31 22.23820 113.74011 3191 ft 174 kts 37°
2026-05-05 05:32 22.24815 113.74719 2977 ft 170 kts 35°
2026-05-05 05:32 22.25800 113.75410 2762 ft 164 kts 34°
2026-05-05 05:32 22.26662 113.76146 2584 ft 163 kts 54°
2026-05-05 05:32 22.26963 113.77230 2436 ft 146 kts 81°
2026-05-05 05:33 22.27364 113.78237 2243 ft 143 kts 67°
2026-05-05 05:33 22.27690 113.79246 2069 ft 138 kts 73°
2026-05-05 05:33 22.28013 113.80222 1886 ft 139 kts 73°
2026-05-05 05:33 22.28330 113.81207 1708 ft 136 kts 73°
2026-05-05 05:34 22.28644 113.82201 1509 ft 139 kts 73°
2026-05-05 05:34 22.28960 113.83177 1349 ft 139 kts 73°
2026-05-05 05:34 22.29271 113.84151 1163 ft 143 kts 73°
2026-05-05 05:34 22.29605 113.85177 1015 ft 144 kts 71°
2026-05-05 05:35 22.29926 113.86169 1013 ft 144 kts 72°
2026-05-05 05:35 22.30229 113.87137 818 ft 130 kts 73°
2026-05-05 05:35 22.30522 113.88080 569 ft 136 kts 72°
2026-05-05 05:35 22.30836 113.89026 238 ft 132 kts 73°
2026-05-05 05:36 22.31144 113.89951 101 ft 132 kts 71°
2026-05-05 05:36 22.31446 113.90875 38 ft 123 kts 70°
2026-05-05 05:36 22.31662 113.91563 37 ft 73 kts 70°
2026-05-05 05:36 22.31789 113.91972 35 ft 49 kts 81°
2026-05-05 05:37 22.31774 113.92253 36 ft 33 kts 97°
2026-05-05 05:37 22.31720 113.92412 36 ft 19 kts 141°
2026-05-05 05:37 22.31615 113.92489 36 ft 18 kts 122°
2026-05-05 05:37 22.31560 113.92611 36 ft 18 kts 115°
2026-05-05 05:38 22.31506 113.92731 36 ft 13 kts 118°
2026-05-05 05:38 22.31435 113.92772 36 ft 12 kts 162°
2026-05-05 05:38 22.31393 113.92786 36 ft 0 kts 161°